Waarnemingen

Advertentie
Mijn weer
Trier-Petrisberg, Duitsland (10609): temperatuur & dauwpunt: 22.06.2017 05:00:00 - 28.06.2017 05:00:00 (CEST)Trier-Petrisberg, Duitsland (10609): temperatuur 5cm & temperatuur -5cm: 22.06.2017 05:00:00 - 28.06.2017 05:00:00 (CEST)Trier-Petrisberg, Duitsland (10609): temperatuur -20cm & temperatuur -100cm: 22.06.2017 05:00:00 - 28.06.2017 05:00:00 (CEST)Trier-Petrisberg, Duitsland (10609): windsnelheid & windstoten: 22.06.2017 05:00:00 - 28.06.2017 05:00:00 (CEST)Trier-Petrisberg, Duitsland (10609): windrichting: 22.06.2017 05:00:00 - 28.06.2017 05:00:00 (CEST)Trier-Petrisberg, Duitsland (10609): luchtdruk: 22.06.2017 05:00:00 - 28.06.2017 05:00:00 (CEST)Trier-Petrisberg, Duitsland (10609): zicht: 22.06.2017 05:00:00 - 28.06.2017 05:00:00 (CEST)Trier-Petrisberg, Duitsland (10609): Zonneschijnduur: 22.06.2017 05:00:00 - 28.06.2017 05:00:00 (CEST)Trier-Petrisberg, Duitsland (10609): neerslag: 22.06.2017 05:00:00 - 28.06.2017 05:00:00 (CEST)
Datum & Tijd tt [°C] td [°C] tt 5cm [°C] tt -5cm [°C] tt -20cm [°C] tt -100cm [°C] ff [km/u] ff [kn] fx [km/u] fx [kn] dd ppp [hPa] vv [km] sd [min] rr [mm]
28.06.2017 05:00:00 - - - - - - 3 2 6 3 ZW - 9 - 0,1
28.06.2017 04:00:00 - - - - - - 5 3 11 6 ZO - 19 - 0,8
28.06.2017 03:00:00 16,0 15,7 16,2 19,2 23,4 21,9 4 2 46 25 ZZO 1001,5 - - 2,8
28.06.2017 02:00:00 - - - - - - 25 13 54 29 ZW - 18 - 0,0
28.06.2017 01:00:00 18,2 18,0 18,3 20,9 23,9 22,0 2 1 11 6 NNO 1001,6 3,8 0 0,0
28.06.2017 00:00:00 18,2 17,9 18,1 21,1 24,2 22,0 9 5 14 8 NNO 1002,0 - 0 0,0
27.06.2017 23:00:00 18,3 18,0 18,4 21,6 24,5 22,0 8 5 15 8 NNO 1002,4 4,6 0 0,0
27.06.2017 22:00:00 18,5 18,2 18,6 22,2 24,7 22,0 5 3 13 7 NO 1003,0 - 0 0,4
27.06.2017 21:00:00 18,7 18,1 18,9 22,8 24,9 22,0 8 4 15 8 NO 1003,2 - 1 0,1
27.06.2017 20:00:00 18,9 18,3 19,2 23,4 25,1 22,0 10 6 22 12 NNO 1003,4 9 0 0,0
27.06.2017 19:00:00 19,6 18,4 19,7 24,8 25,1 22,0 12 7 19 10 NNO 1003,9 13 0 0,0
27.06.2017 18:00:00 20,2 18,2 20,7 25,5 25,1 22,0 11 6 16 9 NO 1004,6 26 9 0,1
27.06.2017 17:00:00 18,8 18,6 20,4 23,7 25,2 22,0 8 4 - - ZO 1006,1 - - -
27.06.2017 16:00:00 - - - - - - - - - - - - - - -
27.06.2017 15:00:00 - - - - - - - - - - - - - - -
27.06.2017 14:00:00 - - - - - - - - - - - - - - -
27.06.2017 13:00:00 - - - - - - - - - - - - - - -
27.06.2017 12:00:00 - - - - - - - - - - - - - - -
27.06.2017 11:00:00 - - - - - - - - - - - - - - -
27.06.2017 10:00:00 - - - - - - - - 19 10 - - - - -
27.06.2017 09:00:00 16,5 14,9 16,7 21,4 24,9 22,0 11 6 22 12 NNO 1009,4 6 0 0,1
27.06.2017 08:00:00 16,3 15,0 16,2 21,5 25,2 22,0 9 5 17 9 NNO 1009,5 6 - -
27.06.2017 07:00:00 - - - - - - 4 2 - - NW - - - -
27.06.2017 06:00:00 - - - - - - - - - - - - - - -
27.06.2017 05:00:00 - - - - - - - - - - - - - - -
27.06.2017 04:00:00 - - - - - - - - - - - - - - -
27.06.2017 03:00:00 - - - - - - - - - - - - - - -
27.06.2017 02:00:00 - - - - - - - - - - - - - - -
27.06.2017 01:00:00 - - - - - - - - - - - - - - -
27.06.2017 00:00:00 - - - - - - - - - - - - - - -
26.06.2017 23:00:00 - - - - - - - - - - - - - - -
26.06.2017 22:00:00 - - - - - - - - - - - - - - -
26.06.2017 21:00:00 - - - - - - - - 38 21 - - - - -
26.06.2017 20:00:00 - - - - - - 12 6 22 12 N - - - -
26.06.2017 19:00:00 - - - - - - 7 4 16 9 N - - - -
26.06.2017 18:00:00 - - - - - - 9 5 22 12 WNW - - - -
26.06.2017 17:00:00 - - - - - - 8 4 16 9 W - - - -
26.06.2017 16:00:00 27,9 - 33,9 39,8 27,0 - 6 4 18 10 ZW - - - -
26.06.2017 15:00:00 26,6 10,6 33,0 38,8 26,1 22,0 5 3 22 12 ONO 1011,5 24 55 0,0
26.06.2017 14:00:00 26,7 10,9 32,7 37,3 25,2 22,0 6 4 21 11 W 1011,8 18 54 0,0
26.06.2017 13:00:00 25,0 11,0 30,1 34,8 24,4 22,0 11 6 23 13 W 1012,6 35 60 0,0
26.06.2017 12:00:00 22,5 11,7 27,0 31,1 23,8 22,0 8 5 19 10 W 1013,2 40 56 0,0
26.06.2017 11:00:00 21,7 11,9 25,7 28,3 23,4 22,0 8 5 19 10 WZW 1013,2 33 59 0,0
26.06.2017 10:00:00 20,7 12,1 23,0 24,8 23,3 22,0 8 4 23 12 W 1013,5 37 59 0,0
26.06.2017 09:00:00 19,3 12,8 21,0 21,8 23,3 22,1 10 6 18 10 WZW 1013,9 68 - 0,0
26.06.2017 08:00:00 18,0 12,9 18,0 20,2 23,5 22,1 6 4 16 9 WZW 1013,9 - - -
26.06.2017 07:00:00 16,7 12,9 15,7 20,3 23,7 22,1 9 5 19 11 W - - - -
26.06.2017 06:00:00 17,3 13,1 17,3 20,6 24,0 22,1 11 6 21 11 WZW - - - -
26.06.2017 05:00:00 17,5 13,4 16,4 20,8 24,2 22,1 10 5 17 9 WZW - - - -
26.06.2017 04:00:00 18,2 13,4 17,7 21,2 24,5 22,1 13 7 22 12 WZW - - - -
26.06.2017 03:00:00 18,2 13,5 17,5 21,5 24,8 22,1 10 5 16 9 ZW - - - -
26.06.2017 02:00:00 18,2 13,6 16,7 22,2 25,0 22,1 6 4 14 8 ZW - - - -
26.06.2017 01:00:00 18,9 13,4 18,3 22,7 25,3 22,2 9 5 12 6 ZW - - - -
26.06.2017 00:00:00 19,1 13,0 18,0 23,3 25,6 22,2 8 4 15 8 ZW - - - -
25.06.2017 23:00:00 20,0 12,7 19,6 23,8 25,8 22,2 9 5 17 9 WZW - - - -
25.06.2017 22:00:00 20,9 12,2 20,0 24,8 26,0 22,2 12 6 25 13 W - - - -
25.06.2017 21:00:00 21,8 11,8 21,9 26,0 26,1 22,2 17 9 31 17 W - - - -
25.06.2017 20:00:00 22,6 11,7 23,5 27,3 26,0 22,2 18 10 38 20 W 1013,3 - - -
25.06.2017 19:00:00 22,9 12,0 24,3 28,1 25,9 22,3 19 11 37 20 W 1013,2 - - -
25.06.2017 18:00:00 22,8 12,2 24,6 28,0 25,7 22,3 22 12 41 22 W 1013,5 - - -
25.06.2017 17:00:00 22,5 12,8 24,4 27,7 25,5 22,3 23 13 42 23 WZW 1013,8 - - -
25.06.2017 16:00:00 24,5 14,0 29,5 28,6 25,3 22,3 23 13 45 24 WZW 1013,7 - - 0,0
25.06.2017 15:00:00 21,3 12,9 23,8 26,1 25,2 22,3 18 10 42 23 W 1014,2 38 0 0,0
25.06.2017 14:00:00 21,6 13,0 24,2 26,7 25,0 22,3 19 11 39 21 W 1014,1 55 4 0,0
25.06.2017 13:00:00 20,6 12,7 21,6 26,6 24,8 22,3 26 14 47 25 W 1014,3 46 12 0,0
25.06.2017 12:00:00 20,6 13,3 22,6 25,5 24,7 22,3 19 10 39 21 WZW 1014,4 50 1 0,0
25.06.2017 11:00:00 20,1 13,2 21,9 24,8 24,6 22,4 18 10 33 18 WZW 1014,3 42 0 0,0
25.06.2017 10:00:00 19,8 13,1 21,6 24,2 24,5 22,4 14 8 27 15 ZW 1014,1 44 0 0,0
25.06.2017 09:00:00 18,9 12,3 21,2 23,4 24,6 22,4 14 7 28 15 ZW - - 1 -
25.06.2017 08:00:00 17,5 11,9 18,6 21,4 24,8 22,3 13 7 19 11 WZW - - - -
25.06.2017 07:00:00 15,2 11,4 14,7 20,6 25,1 22,3 9 5 12 7 WZW - - - -
25.06.2017 06:00:00 15,4 11,2 15,4 20,5 25,5 22,3 8 4 18 10 W - - - -
25.06.2017 05:00:00 14,9 11,1 13,8 21,1 25,9 22,3 6 4 20 11 WZW - - - -
25.06.2017 04:00:00 15,1 11,0 14,2 21,5 26,4 22,3 13 7 16 9 ZW - - - -
25.06.2017 03:00:00 - - - - - - 9 5 13 7 ZW - - - -
25.06.2017 02:00:00 - - - - - - 10 6 16 9 ZW - - - -
25.06.2017 01:00:00 - - - - - - 13 7 18 10 WZW - - - -
25.06.2017 00:00:00 - - - - - - 10 5 16 9 WZW - - - -
24.06.2017 23:00:00 - - - - - - 9 5 20 11 WZW - - - -
24.06.2017 22:00:00 - - - - - - 14 8 27 14 W - - - -
24.06.2017 21:00:00 - - - - - - 16 9 31 17 W - - - -
24.06.2017 20:00:00 - - - - - - 16 9 32 18 WZW - - - -
24.06.2017 19:00:00 24,8 9,3 28,9 34,7 29,0 22,3 19 10 39 21 ZW - - - -
24.06.2017 18:00:00 - - - - - - 19 10 41 22 WZW - - - -
24.06.2017 17:00:00 24,0 8,5 29,4 36,4 27,9 22,4 24 13 42 23 WZW 1015,9 - - 0,0
24.06.2017 16:00:00 24,7 8,9 30,9 35,4 27,3 22,4 25 14 39 21 WZW 1016,2 9 - 0,0
24.06.2017 15:00:00 22,8 8,7 26,4 35,6 26,6 22,4 19 10 42 23 WZW 1016,7 40 45 0,0
24.06.2017 14:00:00 23,7 9,3 29,4 34,8 25,9 22,4 21 11 41 22 WZW 1016,9 25 49 0,0
24.06.2017 13:00:00 22,2 8,5 27,9 33,0 25,3 22,4 23 12 40 22 WZW 1017,4 20 56 0,0
24.06.2017 12:00:00 20,8 9,2 25,2 29,2 24,9 22,4 20 11 41 22 WZW 1017,9 33 49 0,0
24.06.2017 11:00:00 18,6 8,9 22,2 25,0 24,8 22,4 23 13 40 22 WZW 1018,6 30 16 0,0
24.06.2017 10:00:00 16,5 8,4 18,4 22,7 24,9 22,4 24 13 38 21 W 1019,2 30 - 0,0
24.06.2017 09:00:00 16,2 9,2 17,9 21,8 25,1 22,4 18 10 34 18 W 1019,2 - - 0,0
24.06.2017 08:00:00 15,2 10,6 15,9 21,1 25,4 22,4 17 9 30 16 WZW 1019,1 - - 0,0
24.06.2017 07:00:00 14,8 11,9 15,5 20,9 25,7 22,4 10 6 16 9 ZW 1018,9 32 - 0,0
24.06.2017 06:00:00 13,3 11,8 13,5 20,4 26,2 22,4 7 4 21 11 ZW 1019,3 - 0 0,0
24.06.2017 05:00:00 13,9 11,6 12,6 20,9 26,6 22,3 6 3 14 8 WZW 1019,1 27 0 0,0
24.06.2017 04:00:00 14,8 12,1 13,6 21,6 27,2 22,3 9 5 14 8 WZW 1018,9 - 0 0,0
24.06.2017 03:00:00 15,7 12,2 14,1 22,4 27,7 22,3 10 6 13 7 WZW 1018,5 37 0 0,0
24.06.2017 02:00:00 16,8 12,1 15,5 23,2 28,2 22,3 10 5 14 8 WZW 1018,3 41 0 0,0
24.06.2017 01:00:00 16,6 11,8 14,0 24,1 28,8 22,3 11 6 16 9 ZW 1018,6 49 0 0,0
24.06.2017 00:00:00 18,2 11,7 16,9 25,4 29,4 22,3 10 5 20 11 WZW 1019,0 57 0 0,0
23.06.2017 23:00:00 19,8 11,4 18,7 26,8 30,0 22,2 14 7 25 13 W 1018,5 58 0 0,0
23.06.2017 22:00:00 21,2 11,0 20,0 28,5 30,4 22,2 15 8 29 16 W 1017,6 68 34 0,0
23.06.2017 21:00:00 22,6 10,4 22,0 31,1 30,6 22,2 16 9 31 17 WZW 1016,9 51 60 0,0
23.06.2017 20:00:00 24,0 10,6 25,9 33,5 30,6 22,2 19 10 35 19 WZW 1016,7 24 59 0,0
23.06.2017 19:00:00 24,4 10,5 27,9 35,6 30,4 22,2 19 10 34 18 W 1016,7 30 60 0,0
23.06.2017 18:00:00 24,1 11,0 28,2 37,0 30,0 22,2 22 12 38 20 WZW 1016,7 14 60 0,0
23.06.2017 17:00:00 24,7 12,1 29,7 38,3 29,4 22,2 19 10 37 20 W 1016,8 14 60 0,0
23.06.2017 16:00:00 25,3 12,3 31,7 38,7 28,7 22,2 18 10 36 19 W 1016,8 13 60 0,0
23.06.2017 15:00:00 24,6 11,9 30,4 38,9 27,9 22,2 17 9 38 20 W 1017,1 12 60 0,0
23.06.2017 14:00:00 24,5 12,0 30,2 37,3 27,2 22,2 22 12 43 23 WZW 1017,0 13 60 0,0
23.06.2017 13:00:00 25,1 12,1 30,4 34,4 26,7 22,2 19 11 34 18 ZW 1016,7 17 50 0,0
23.06.2017 12:00:00 22,6 12,8 27,1 30,6 26,3 22,2 16 9 29 16 W 1016,9 28 22 0,0
23.06.2017 11:00:00 22,0 13,1 25,6 29,1 26,1 22,2 15 8 28 15 WZW 1017,0 27 34 0,0
23.06.2017 10:00:00 21,3 13,8 23,6 26,7 26,1 22,2 9 5 22 12 ZW 1016,9 26 54 0,0
23.06.2017 09:00:00 19,2 13,2 21,1 24,1 26,2 22,2 14 8 23 12 WZW 1016,9 25 60 0,0
23.06.2017 08:00:00 18,0 12,8 18,2 22,7 26,6 22,2 11 6 18 10 ZW 1016,4 22 39 0,0
23.06.2017 07:00:00 16,9 12,9 16,3 22,4 27,0 22,1 8 5 11 6 W 1016,0 22 1 0,0
23.06.2017 06:00:00 16,7 12,8 15,5 22,8 27,5 22,1 4 2 17 9 WNW 1015,5 20 0 0,0
23.06.2017 05:00:00 17,6 12,7 16,8 23,5 27,9 22,1 11 6 18 10 NW 1015,0 24 0 0,0
23.06.2017 04:00:00 18,6 12,9 17,7 24,4 28,4 22,0 8 4 16 9 NNW 1014,7 24 0 0,0
23.06.2017 03:00:00 19,6 12,6 18,2 25,4 28,9 22,0 5 3 26 14 NNW 1014,4 27 0 0,0
23.06.2017 02:00:00 21,6 12,8 20,9 26,6 29,4 22,0 10 5 30 16 NNW 1013,7 24 0 0,0
23.06.2017 01:00:00 23,9 11,9 22,7 27,8 29,8 22,0 12 6 35 19 W 1012,9 27 0 0,0
23.06.2017 00:00:00 25,8 16,7 25,3 29,2 30,2 21,9 14 8 37 20 WNW 1011,7 21 0 0,0
22.06.2017 23:00:00 28,1 16,6 27,2 30,3 30,6 21,9 15 8 32 18 WNW 1010,5 24 0 0,0
22.06.2017 22:00:00 29,6 15,4 28,7 31,5 30,9 21,9 19 10 39 21 W 1010,0 25 0 0,0
22.06.2017 21:00:00 30,9 11,8 30,0 33,4 31,1 21,9 21 11 40 22 WZW 1009,3 37 50 0,0
22.06.2017 20:00:00 32,4 9,7 33,2 35,2 31,1 21,9 22 12 59 32 W 1008,8 19 60 0,0
22.06.2017 19:00:00 32,9 14,7 33,9 36,6 31,0 21,9 32 18 59 32 W 1008,4 16 44 0,0
22.06.2017 18:00:00 34,2 14,0 37,0 38,8 30,6 21,9 32 18 55 30 W 1008,3 10 56 0,0
22.06.2017 17:00:00 34,5 13,7 37,3 39,7 30,1 21,9 28 15 50 27 W 1008,9 14 55 0,0
22.06.2017 16:00:00 34,3 14,7 36,5 37,9 29,5 21,9 24 13 47 25 WZW 1009,6 27 16 0,0
22.06.2017 15:00:00 35,7 13,5 39,7 41,4 28,7 21,9 24 13 48 26 W 1009,4 14 58 0,0
22.06.2017 14:00:00 35,6 16,4 40,8 40,4 27,8 21,9 22 12 37 20 WZW 1010,6 21 60 0,0
22.06.2017 13:00:00 - - - - - - - - - - - - - - 0,0
22.06.2017 12:00:00 - - - - - - - - - - - - - - 0,0
22.06.2017 11:00:00 30,0 15,3 32,0 31,5 26,3 21,8 10 5 21 11 ZW 1012,5 14 54 0,0
22.06.2017 10:00:00 26,4 15,7 29,3 28,4 26,2 21,8 3 2 9 5 WNW 1013,3 14 60 0,0
22.06.2017 09:00:00 23,9 15,1 25,7 25,7 26,2 21,7 0 0 6 4 N 1013,9 16 57 0,0
22.06.2017 08:00:00 21,1 14,9 21,2 23,8 26,5 21,7 0 0 6 3 W 1014,4 18 57 0,0
22.06.2017 07:00:00 18,8 14,8 18,2 23,0 26,9 21,7 3 2 5 3 ZW 1014,7 17 45 0,0
22.06.2017 06:00:00 17,9 14,7 16,2 23,1 27,3 21,6 0 0 7 4 W 1014,8 17 0 0,0
22.06.2017 05:00:00 18,8 14,8 16,7 23,6 27,8 21,6 4 2 5 3 W 1014,6 16 0 0,0

tt = temperatuur
td = dauwpunt
tt 5cm = temperatuur 5cm
tt -5cm = temperatuur -5cm
tt -20cm = temperatuur -20cm
tt -100cm = temperatuur -100cm
ff = windsnelheid
fx = windstoten
dd = windrichting
ppp = luchtdruk
vv = zicht
sd = Zonneschijnduur
rr = neerslag

Weerstations in de omgeving